Theta_e
316 317 318 319 318 317 315 317 320 319 320 322 321 322 322 322 322 318 314 311 310 313 315 315 315 315 315 315 316 317 315 312 313 314 313 313 314 315 315 314 314 315 315 315 315 314 314 314 314 315 315 315 315 315 315 315 315 315 315 316 316 317 318 319 319 319 319 320 319 319 318 317 317 317 317 317 317 318 320 322 324 325 325 324 324 324
315 318 320 320 319 317 315 316 318 317 318 319 319 320 320 320 321 317 313 310 309 312 316 315 314 314 315 315 315 316 315 313 313 314 314 314 314 315 316 316 315 316 316 315 315 315 315 314 314 314 314 315 315 314 315 314 314 315 314 314 315 315 316 317 317 318 318 318 317 317 317 316 316 316 317 317 317 318 319 320 322 324 324 323 323 323
316 319 320 319 318 318 317 317 317 317 316 317 318 319 320 319 318 317 313 310 310 312 316 315 313 314 315 315 315 315 314 314 314 313 314 314 314 315 315 316 316 316 316 316 316 315 315 315 314 314 314 314 314 314 314 314 314 315 315 314 314 314 314 315 316 316 316 316 317 317 317 317 316 316 317 317 317 318 319 319 320 321 321 321 321 322
319 320 319 318 318 318 318 316 317 318 317 317 318 318 320 318 318 321 315 310 310 311 313 313 312 314 315 315 314 314 314 314 314 313 313 313 313 314 314 315 315 315 317 317 317 316 315 315 315 314 315 314 314 314 314 315 314 314 315 314 314 314 313 314 314 315 315 315 316 317 318 318 318 318 318 319 318 318 318 318 319 319 320 320 321 321
320 320 318 318 317 317 317 315 316 318 318 317 317 319 321 317 317 320 315 311 311 311 310 311 314 316 316 317 317 317 315 313 313 313 312 313 312 313 313 314 315 315 317 318 318 317 316 315 316 315 315 315 314 315 314 314 314 314 314 314 314 314 313 313 313 313 314 314 315 316 317 318 319 319 319 320 319 318 317 318 318 319 320 321 321 322
319 318 318 318 317 317 316 314 315 318 319 318 316 317 319 318 316 316 313 314 318 318 312 311 319 321 317 317 318 318 316 314 314 314 313 313 313 313 313 313 315 316 316 317 318 318 317 316 316 315 315 315 314 315 315 315 314 314 313 313 313 313 313 313 313 313 313 314 314 315 316 316 317 317 318 318 318 317 317 317 317 318 319 320 321 323
317 315 317 317 317 318 317 316 315 317 320 320 317 315 316 317 317 315 314 317 322 321 313 310 318 321 316 316 316 316 315 314 314 314 313 313 313 313 313 314 315 315 316 317 317 318 317 316 316 315 315 315 315 315 315 315 315 314 314 314 313 313 313 313 313 313 313 313 313 313 314 314 315 315 316 316 316 316 316 317 317 318 318 319 321 322
314 314 316 317 318 318 318 317 315 315 320 321 316 314 314 315 316 315 315 317 318 316 312 311 313 314 314 315 315 314 314 314 314 314 314 314 313 313 313 314 315 315 316 316 317 317 317 317 316 316 316 316 316 315 315 315 315 315 314 314 314 313 313 313 313 313 313 313 313 313 313 313 313 314 314 315 315 316 316 316 317 318 319 320 321 321
314 314 316 317 318 318 318 318 314 314 318 316 312 312 313 314 315 314 314 315 314 313 316 315 312 315 317 315 314 314 314 315 315 314 315 315 314 313 313 314 315 315 316 316 317 317 317 317 317 317 316 315 315 315 315 315 315 315 315 315 314 314 314 313 313 313 313 313 313 313 312 312 312 312 313 314 314 315 316 316 317 318 318 320 321 321
315 315 315 316 317 317 318 316 313 314 315 311 310 312 313 313 313 313 313 314 313 315 319 317 313 317 321 317 314 314 313 315 316 315 316 316 315 314 313 314 316 316 316 316 316 317 316 317 317 317 316 316 315 315 315 315 315 315 315 315 315 314 314 314 313 313 313 313 313 313 313 312 312 312 313 313 313 314 314 315 316 317 318 318 320 321
312 313 315 316 316 315 314 312 313 314 312 310 310 312 312 312 312 312 313 313 316 319 320 317 314 315 320 319 316 316 314 314 316 316 316 316 316 316 314 315 316 315 316 316 316 317 317 317 316 317 316 316 316 315 315 315 315 315 315 315 314 314 314 314 314 313 313 313 313 313 313 312 312 312 312 312 313 313 313 314 314 316 316 316 318 319
311 313 314 313 312 312 311 310 310 310 310 311 312 313 313 312 312 313 312 312 319 323 317 313 312 314 319 319 316 317 315 313 315 316 316 316 316 315 315 315 316 315 315 315 316 316 317 317 316 316 316 316 315 315 315 315 315 315 315 315 314 314 314 314 313 313 313 313 313 313 313 313 312 312 312 312 312 312 313 313 313 314 315 315 316 317
312 313 312 310 309 311 313 312 309 308 311 312 312 315 317 315 315 317 315 313 319 320 311 308 310 313 317 318 315 315 315 314 314 314 315 316 316 315 315 315 315 315 315 314 315 315 315 315 315 314 315 315 314 314 315 314 314 315 315 315 315 315 314 314 314 314 313 313 313 313 313 313 313 312 312 312 312 312 312 312 313 314 315 315 315 315
313 314 311 310 309 311 314 314 311 309 311 311 313 318 319 316 319 322 318 315 318 315 307 307 310 313 316 316 315 314 314 315 313 312 313 313 314 314 314 314 313 313 314 314 314 314 314 314 314 313 313 313 313 314 314 314 314 314 314 314 315 315 314 314 314 313 313 313 313 313 313 313 313 312 312 312 312 312 312 312 313 313 314 314 315 315
317 317 313 311 311 312 314 314 313 311 311 312 314 318 319 317 320 323 320 319 319 313 307 307 312 317 317 315 313 312 313 312 311 311 311 311 311 311 312 312 312 312 312 312 313 313 313 313 313 313 313 313 314 313 313 314 314 314 313 314 314 314 314 314 314 314 314 313 313 313 313 313 313 313 313 313 313 313 313 313 313 314 315 315 316 317
320 319 313 311 311 311 314 315 313 312 312 313 315 317 319 317 316 316 315 314 314 313 310 309 313 316 315 313 312 312 312 311 311 311 310 310 311 310 311 311 312 312 312 311 312 312 313 313 313 313 314 314 314 314 314 313 313 314 313 314 314 313 314 313 313 313 313 313 313 313 313 313 314 313 314 314 314 314 314 315 315 316 316 317 318 320
321 317 310 309 309 309 313 315 313 314 314 313 315 316 316 315 312 312 311 308 309 315 315 311 312 313 313 314 314 314 314 313 312 311 310 310 310 310 311 312 313 313 312 312 312 312 313 313 313 313 313 314 314 314 314 314 314 314 314 314 314 313 313 313 312 313 313 313 313 313 313 313 313 314 314 314 314 315 315 316 317 318 319 320 322 323
319 314 308 309 311 309 310 312 312 312 312 313 315 314 314 313 312 312 312 309 310 316 316 312 313 314 315 317 315 313 314 314 314 314 312 311 310 310 311 313 313 313 314 314 314 314 314 313 313 313 313 313 313 313 313 314 314 313 314 314 313 313 313 312 312 312 313 313 313 313 313 313 313 314 314 314 315 315 316 317 318 319 321 321 323 325
317 315 309 308 311 309 307 311 313 310 309 312 315 314 315 316 316 313 312 312 312 314 315 312 310 311 314 316 314 312 312 313 313 314 314 313 312 311 312 313 313 313 314 314 313 314 314 313 313 313 313 313 313 313 313 313 314 314 314 313 313 313 312 312 312 312 313 313 313 313 313 313 313 313 314 314 315 316 316 317 318 320 321 322 324 326
316 316 312 308 309 309 308 311 314 311 308 309 312 314 314 315 317 315 312 313 314 315 316 314 312 312 314 314 314 314 313 312 313 313 314 315 314 314 313 313 313 312 312 312 312 313 313 313 313 312 313 312 312 313 313 313 314 314 314 313 313 312 312 312 312 312 313 313 313 313 313 313 312 313 313 314 315 316 317 317 318 320 322 323 324 326
314 315 314 309 308 309 309 311 314 313 309 309 312 314 313 311 313 315 313 312 314 315 315 316 316 315 314 312 312 314 314 314 315 314 315 316 315 314 313 312 312 312 312 312 312 313 312 313 313 312 312 312 312 313 313 312 313 313 313 313 313 313 313 313 313 313 313 313 313 313 313 313 313 312 313 313 315 316 316 317 319 320 322 323 324 325
314 314 314 310 308 309 310 310 311 312 311 311 313 314 314 313 312 316 317 312 311 313 312 313 316 317 315 311 311 313 314 314 315 315 316 316 313 312 312 311 311 311 312 312 312 312 312 312 313 312 312 312 312 313 312 313 313 313 313 313 313 313 313 313 313 313 314 313 314 313 313 313 312 312 312 313 314 315 316 318 319 320 321 323 323 325
313 312 312 310 309 310 309 306 305 309 312 312 312 313 314 313 313 317 319 314 310 310 309 309 312 316 315 312 311 312 313 312 312 312 313 313 311 310 310 310 311 311 311 311 311 311 312 312 313 312 311 312 313 312 312 313 313 314 314 313 313 313 313 313 313 313 313 314 314 314 314 314 313 313 313 313 314 314 316 317 319 320 322 323 324 324
313 313 311 310 310 309 309 307 306 308 311 311 312 312 312 314 314 313 313 312 312 311 311 311 312 315 314 312 311 311 309 308 308 308 309 309 309 310 310 310 311 311 311 311 310 311 312 312 312 312 312 312 312 312 312 313 314 314 314 314 314 314 313 313 312 312 312 312 313 313 313 314 314 314 314 314 315 315 316 319 320 321 322 323 323 323
316 315 312 312 311 311 311 310 310 309 309 310 311 311 312 313 313 310 308 310 313 313 313 314 315 316 313 310 310 309 308 309 309 307 308 308 309 310 311 311 311 310 310 311 310 311 311 312 312 312 312 312 311 311 311 312 314 314 314 314 314 314 314 313 312 311 311 311 311 311 312 312 313 314 315 316 316 316 318 319 320 322 322 322 321 322
317 315 314 316 314 314 314 313 312 311 309 309 310 311 312 312 312 311 310 311 313 314 313 314 316 316 311 309 310 309 308 311 311 308 307 308 309 310 311 311 311 310 311 311 310 311 311 312 312 312 313 312 311 311 311 312 313 314 314 314 314 314 314 313 313 311 311 310 310 310 311 311 312 313 314 314 315 316 318 318 320 320 318 317 319 320
316 315 316 317 316 316 316 315 314 312 310 310 310 311 312 312 312 312 312 312 313 313 312 313 315 316 313 310 310 311 311 312 312 309 308 309 310 310 310 311 311 311 311 311 311 311 311 312 312 312 313 312 312 312 311 312 313 314 314 314 314 314 314 313 313 312 312 311 310 310 310 310 311 311 312 313 314 314 315 316 316 316 315 317 319 319
316 315 316 317 318 317 317 317 315 313 312 311 311 311 311 311 312 313 314 314 314 313 312 313 314 315 314 311 310 312 312 312 313 310 308 309 310 310 310 311 311 311 311 311 311 311 311 312 312 312 312 312 312 312 311 312 314 314 314 314 314 314 313 313 313 313 313 312 312 311 311 311 311 311 311 312 311 312 312 313 313 314 317 320 320 320
316 316 316 317 318 317 317 317 315 313 313 312 311 312 311 311 312 312 314 314 313 313 314 315 314 314 314 312 311 312 312 312 311 310 308 309 309 310 310 310 311 312 312 312 312 311 311 311 311 311 311 311 311 311 311 313 314 314 314 314 314 314 313 313 313 313 313 313 312 312 311 311 311 311 311 310 310 311 310 310 313 315 317 319 321 321
316 317 316 316 317 316 315 315 314 313 313 312 312 311 311 311 311 311 312 313 313 313 314 314 315 315 314 313 312 312 312 311 310 309 309 310 310 310 310 310 310 311 312 312 312 311 311 311 311 310 311 311 311 311 312 313 314 314 314 314 314 314 314 314 314 314 313 313 313 312 312 312 311 311 311 310 310 309 309 313 316 315 314 316 318 319
315 317 317 315 316 315 313 313 315 314 313 313 312 311 310 310 311 311 312 312 313 313 313 313 314 314 314 314 313 312 311 311 311 311 311 311 312 312 311 311 312 313 313 313 312 311 311 310 310 311 311 311 311 312 313 313 314 314 314 314 314 314 314 314 314 314 314 314 314 313 313 313 312 312 311 311 311 310 311 315 316 313 313 314 315 317
314 316 315 314 315 315 312 311 313 313 313 314 312 311 310 310 311 311 312 313 313 313 314 314 314 314 313 313 312 311 310 311 311 311 312 312 312 313 313 313 313 313 313 312 311 311 311 311 311 311 311 311 312 312 313 314 313 314 313 314 314 314 314 314 314 314 314 314 314 314 313 313 313 313 313 312 312 312 312 313 312 311 315 318 317 318
313 315 314 313 316 317 312 309 310 312 313 314 312 311 311 311 311 311 312 313 313 314 314 314 314 314 313 312 311 311 311 311 311 310 311 311 312 312 312 312 313 313 312 312 311 311 312 312 312 312 311 311 312 313 313 314 314 314 314 314 314 314 314 314 314 314 314 314 314 314 314 314 313 314 314 313 313 312 311 311 312 313 316 319 320 319
314 314 313 314 316 315 311 309 311 312 313 314 313 311 311 311 311 312 312 312 312 313 313 313 313 313 313 313 311 311 311 311 311 311 311 312 312 312 312 312 312 312 312 312 311 311 312 312 312 312 312 311 311 312 313 314 314 314 313 314 314 314 314 314 313 314 314 313 314 314 314 314 314 314 314 313 313 313 313 312 313 314 315 317 320 319
313 313 312 314 315 312 308 310 312 313 314 314 314 312 311 310 311 312 312 312 312 312 312 313 313 313 313 313 311 311 311 310 310 311 311 312 312 312 312 312 312 312 312 312 311 312 312 312 312 312 312 312 312 311 312 313 313 314 314 313 313 313 313 313 313 313 313 313 313 314 313 313 314 314 313 313 312 313 316 315 314 315 316 316 317 317
312 312 312 313 313 310 309 311 313 314 313 313 313 312 311 311 311 312 313 313 312 312 312 312 312 312 313 312 311 310 311 310 310 311 311 311 312 312 312 312 312 312 312 312 311 312 312 312 312 312 312 312 312 311 311 312 313 313 313 313 313 313 313 313 313 313 313 313 313 313 313 313 313 313 313 313 312 312 314 315 315 316 317 318 318 318
311 312 312 312 312 311 311 312 314 315 314 312 311 311 311 311 311 312 313 313 312 312 311 311 311 311 312 312 310 309 309 309 310 310 311 311 311 312 312 312 312 312 312 312 311 312 312 312 311 311 311 311 311 312 311 311 312 312 313 312 312 312 312 312 313 313 313 313 313 313 313 313 313 313 313 313 313 312 313 314 314 314 315 316 316 316
311 312 313 312 312 311 312 313 314 315 316 314 312 312 312 311 311 312 313 313 313 312 312 311 311 311 311 312 310 307 308 309 310 311 311 310 311 312 312 312 312 312 312 312 311 311 312 311 311 311 311 311 311 312 311 311 311 311 312 312 312 311 311 311 312 312 312 313 313 313 313 313 313 313 313 313 313 313 313 314 314 314 314 314 314 313
312 312 312 313 312 311 312 314 314 315 316 316 315 313 311 311 312 312 312 312 313 313 313 312 312 311 312 312 309 307 309 310 311 311 311 311 311 312 312 312 312 312 312 312 311 312 311 311 311 310 310 311 311 311 311 311 311 311 311 311 311 311 311 311 311 311 312 313 313 313 313 313 312 313 313 313 313 313 313 313 313 313 313 313 313 312
312 312 312 312 311 311 313 314 314 315 315 316 315 313 310 310 312 313 313 314 314 314 313 312 312 312 312 312 309 308 310 311 311 312 312 311 311 312 312 312 312 312 312 312 312 312 311 311 311 310 310 311 311 311 311 311 311 311 310 311 310 310 310 310 310 310 311 312 313 313 313 313 312 313 313 312 313 313 312 312 312 312 312 311 311 311
311 311 311 311 311 311 313 315 315 314 315 314 312 310 310 311 313 313 314 314 313 313 313 312 312 312 312 311 309 309 310 311 311 312 312 311 311 312 312 312 312 311 312 312 312 311 311 311 311 310 310 310 311 311 311 311 311 311 311 311 311 311 310 310 309 310 311 312 312 312 312 312 312 312 312 312 312 312 312 312 311 311 310 310 310 310
311 311 312 312 312 312 313 314 314 315 315 311 309 309 311 313 313 313 313 312 312 312 311 311 312 312 311 311 310 310 311 311 311 311 311 311 311 312 312 312 311 311 311 311 311 311 311 311 311 310 310 310 310 310 310 310 310 311 311 311 311 311 311 310 309 309 310 311 312 312 312 312 312 312 312 312 312 312 312 311 310 309 309 309 309 309
312 312 312 312 312 312 312 313 314 316 314 310 308 309 311 313 313 312 311 311 312 312 311 311 312 311 311 311 310 310 311 310 311 310 310 310 310 311 311 311 310 311 311 311 311 310 310 311 310 310 310 310 310 310 310 310 310 310 311 311 311 310 310 310 310 309 310 311 311 312 312 312 312 312 312 312 311 311 310 310 309 309 308 308 308 309
312 313 313 313 312 312 312 313 315 314 311 308 309 311 311 312 311 311 312 311 310 311 312 311 311 311 311 311 311 311 310 310 310 310 309 309 309 310 310 310 310 310 310 310 311 310 310 310 310 310 310 309 310 310 310 310 310 310 310 311 310 310 310 310 310 310 310 310 311 311 311 311 311 311 311 311 311 310 309 309 309 308 308 307 307 308
312 312 313 313 312 312 313 313 311 309 308 308 310 311 311 310 309 310 312 311 309 311 312 311 311 312 311 311 311 311 310 310 310 309 309 309 309 309 309 309 310 310 310 310 310 310 310 309 309 309 309 309 309 310 310 310 310 310 310 310 310 310 310 310 310 310 310 310 310 311 311 311 311 311 311 311 311 310 309 309 308 308 307 307 307 308
312 312 313 313 312 312 312 310 308 306 307 308 310 311 311 311 309 309 311 311 311 312 312 311 312 311 311 311 311 310 310 311 310 310 309 308 308 308 308 309 309 309 310 310 310 310 309 309 309 309 309 309 310 310 310 310 310 310 309 310 310 310 310 310 310 310 310 310 310 311 311 311 311 310 310 310 310 309 308 308 308 308 308 308 308 308
311 311 311 313 313 312 313 312 309 307 307 308 309 309 310 311 310 310 310 311 311 311 311 311 311 311 310 310 311 310 311 310 310 310 310 309 308 308 308 308 309 309 309 310 310 310 309 309 309 309 309 309 310 309 309 309 309 309 309 309 309 309 309 309 309 309 309 309 309 310 310 310 310 310 310 309 309 308 308 308 307 307 308 308 309 309
310 309 310 312 313 312 313 313 309 306 306 307 308 309 309 310 310 310 310 311 310 310 310 310 310 311 310 310 310 310 310 310 310 310 310 309 309 309 308 308 308 308 309 309 309 310 309 309 309 309 309 309 309 309 309 309 309 309 309 309 309 309 309 309 309 309 309 309 309 309 309 309 309 310 309 309 309 308 308 308 308 308 308 309 309 309
309 309 310 311 312 311 312 311 307 306 307 307 307 308 309 310 310 310 310 311 310 310 310 310 310 311 311 310 310 310 310 310 310 309 309 309 309 309 308 308 308 308 309 309 309 309 309 309 309 309 309 309 309 309 309 309 309 309 309 310 310 309 309 309 309 309 308 308 308 308 308 308 309 309 309 309 308 308 308 308 308 308 308 308 308 307
309 310 309 310 311 312 311 310 309 309 310 307 305 307 310 311 311 311 310 310 309 309 310 310 310 310 310 310 310 309 309 309 309 309 309 309 309 309 308 308 308 308 308 308 308 309 309 309 309 309 309 309 309 309 309 309 309 309 309 309 309 309 309 309 309 309 309 309 309 308 308 308 308 308 308 308 308 308 307 307 306 306 306 307 306 306
309 310 309 310 312 312 312 311 310 311 311 309 307 308 310 311 311 311 311 310 310 310 310 310 310 310 310 310 309 309 309 309 309 309 309 309 309 309 308 308 308 308 308 308 308 309 309 309 309 309 309 309 309 309 309 309 309 309 309 309 309 309 309 309 309 309 309 309 309 308 308 308 307 307 307 307 307 307 307 306 306 306 306 305 305 304
Wind_Speed
12 8 9 10 11 14 15 15 11 8 13 14 10 9 7 6 7 4 1 2 1 5 8 10 12 14 16 15 18 20 14 14 16 16 18 22 24 23 23 22 23 23 23 23 23 24 26 27 27 26 27 27 27 27 28 28 27 28 29 29 30 30 31 33 34 33 34 33 32 32 33 33 33 33 33 34 34 33 32 31 30 29 28 28 28 27
10 9 11 12 13 16 16 16 12 8 9 10 7 7 6 6 7 3 1 2 3 4 8 8 9 14 16 15 16 18 13 12 17 18 18 21 24 27 27 27 26 24 23 22 21 22 25 28 28 28 28 28 28 29 29 29 28 27 28 29 30 30 33 35 35 35 35 35 34 33 34 33 33 33 34 35 34 34 34 33 31 31 30 30 30 29
8 9 11 13 12 14 14 14 13 11 9 8 6 6 6 6 5 5 4 3 3 4 7 7 8 13 17 15 15 16 17 18 19 20 21 21 20 22 26 29 29 27 26 24 22 21 23 26 28 29 30 30 30 30 30 30 30 29 30 30 29 30 33 35 36 37 37 36 35 34 33 33 33 33 34 34 34 34 34 33 33 32 31 31 31 31
9 9 13 16 14 15 15 15 15 13 9 8 7 7 6 5 6 6 4 4 4 3 6 8 8 12 15 14 14 18 21 20 20 23 26 27 23 22 27 30 29 29 29 28 26 24 24 25 26 28 30 31 32 32 31 32 32 33 33 32 31 31 33 35 36 37 37 36 35 34 34 34 33 33 33 34 34 34 34 34 34 33 32 33 33 32
8 9 18 19 15 17 16 15 16 11 8 9 9 10 7 7 10 6 1 1 3 3 2 7 10 10 12 14 14 15 17 17 19 22 24 29 31 30 32 34 33 34 34 33 30 28 28 28 28 28 28 29 32 33 34 33 33 34 33 32 32 32 32 34 34 34 34 35 36 36 35 35 36 36 36 36 37 35 35 35 35 34 34 34 34 33
7 13 23 19 16 18 15 13 16 13 8 9 10 11 9 8 9 5 2 1 5 5 2 2 8 6 5 10 11 9 9 11 15 16 18 26 33 34 35 36 37 37 36 36 34 32 30 30 30 29 29 29 30 32 34 34 33 33 33 32 32 32 33 33 33 32 32 34 36 37 38 39 39 40 40 40 39 37 35 36 35 35 35 35 34 32
5 15 20 17 18 19 15 12 16 15 8 7 9 11 12 9 7 6 4 3 5 4 1 2 7 6 3 8 9 7 8 9 10 12 16 23 29 33 35 35 36 36 35 36 35 34 32 31 30 29 29 30 30 31 33 35 35 34 34 34 33 33 33 34 33 32 32 33 35 37 39 41 41 41 42 41 39 37 36 35 35 35 35 35 33 32
8 17 17 17 18 14 13 12 12 15 10 4 7 12 12 10 9 8 6 6 3 3 2 4 4 8 9 9 9 10 12 12 12 13 16 20 25 32 35 36 35 35 34 34 35 35 34 32 31 30 29 29 30 30 31 33 35 36 35 35 35 35 34 35 34 34 34 34 35 36 37 39 41 42 42 40 38 37 36 36 35 35 35 33 31 30
8 18 18 18 16 11 14 12 14 18 9 1 6 11 10 8 6 5 5 4 1 3 6 5 4 7 9 4 6 10 13 14 16 17 18 17 21 29 36 39 39 37 35 34 35 35 35 34 33 32 31 30 29 30 30 31 33 36 37 36 36 36 35 35 35 35 35 36 36 36 37 38 40 40 40 40 39 38 37 37 36 36 34 32 30 28
6 15 19 17 13 12 12 9 15 19 7 2 7 9 7 5 4 2 2 2 1 4 10 6 7 6 10 4 6 6 8 13 15 14 16 19 22 29 35 39 40 41 39 37 37 37 37 36 35 34 33 32 31 31 31 31 32 35 37 37 37 36 36 35 35 35 36 37 38 38 38 38 39 39 39 39 39 38 38 38 36 36 35 32 30 28
3 11 15 12 9 7 7 5 7 12 7 10 9 9 7 4 3 2 1 1 3 7 7 6 10 6 9 4 7 7 7 11 13 10 12 17 22 28 34 37 37 38 39 40 40 39 39 39 37 36 36 36 35 33 32 33 34 35 37 38 38 37 37 36 36 36 37 38 39 39 39 39 39 39 39 38 39 38 38 38 36 36 36 33 31 29
6 11 9 6 7 8 11 6 3 5 11 11 8 8 7 2 2 1 1 2 5 7 1 4 8 9 10 4 5 6 5 6 9 9 10 13 18 26 34 38 37 35 34 35 38 40 40 40 38 36 37 37 36 35 35 35 36 37 38 39 39 39 39 38 37 36 37 39 39 39 40 41 40 39 39 39 39 38 37 36 35 35 35 33 31 30
6 6 2 2 7 13 14 8 3 3 6 6 6 9 7 3 3 3 3 3 6 5 2 1 3 7 13 8 3 5 8 9 9 9 12 14 15 21 30 35 35 34 33 34 35 35 35 36 34 32 33 33 34 34 35 36 37 39 40 41 42 42 42 41 40 37 37 39 40 39 40 41 40 39 39 39 38 38 37 35 35 35 35 33 31 29
4 2 1 4 6 13 15 11 7 5 6 7 8 9 7 5 5 6 5 4 5 3 2 1 2 5 12 8 5 10 12 12 9 10 16 18 17 19 24 28 27 28 32 34 33 29 28 29 27 25 26 28 31 33 34 35 35 38 41 43 44 44 44 44 42 39 38 39 39 39 39 39 39 39 38 38 38 37 37 36 35 34 34 33 31 29
8 1 8 11 6 13 16 10 9 7 6 9 7 6 7 6 5 6 5 5 3 1 2 3 2 7 7 2 2 8 10 11 12 15 20 22 24 23 24 26 26 26 27 27 28 25 24 24 21 20 21 23 27 30 32 33 33 34 38 42 44 45 46 46 44 42 39 39 39 38 38 37 37 38 37 37 37 37 36 35 34 33 33 32 30 28
10 3 6 8 4 14 18 11 13 12 6 6 3 3 6 5 3 1 1 1 1 1 3 5 4 6 4 6 9 9 9 12 16 18 19 23 25 23 23 26 27 26 23 21 22 22 22 21 19 19 19 19 21 25 28 31 31 32 33 36 40 42 44 45 44 43 40 38 38 38 37 36 36 37 37 36 36 36 34 34 33 32 31 30 29 26
12 4 3 4 2 10 14 13 17 15 8 5 4 5 3 2 3 2 1 2 1 4 4 5 6 6 4 9 12 13 13 12 12 12 14 18 19 18 24 28 28 28 25 23 24 23 23 23 23 24 22 19 19 20 23 27 29 30 30 32 35 37 40 42 43 42 39 37 37 37 36 36 36 36 36 35 34 34 32 32 31 30 29 28 27 25
9 3 1 4 5 7 8 12 13 8 4 5 7 7 5 4 2 2 3 2 4 7 3 5 9 7 3 5 5 9 14 15 13 11 9 10 11 14 22 28 29 29 28 28 29 28 27 25 25 28 27 23 19 18 19 22 25 27 29 30 31 33 36 38 39 39 37 36 35 36 36 36 36 36 35 34 33 32 31 30 30 29 29 27 26 25
8 5 2 1 4 3 4 9 9 4 2 3 7 10 7 3 5 6 5 4 5 6 3 4 7 7 8 8 3 7 8 10 12 12 11 10 10 14 21 25 24 24 25 26 27 27 26 24 25 28 30 27 23 20 18 18 21 23 25 26 27 29 31 32 34 35 35 35 34 35 35 35 35 35 35 34 33 32 31 30 29 28 28 26 25 25
7 5 2 1 1 3 2 5 9 7 2 1 5 9 4 3 6 6 4 2 4 5 5 3 3 5 7 7 7 10 9 7 7 9 11 12 13 17 22 23 20 19 19 20 21 23 23 23 25 26 29 30 25 21 18 17 18 19 20 22 22 24 26 29 31 33 34 35 34 34 34 35 35 34 34 33 32 31 31 30 28 28 27 25 25 25
6 2 5 5 2 3 5 6 10 12 8 5 8 11 7 3 2 2 3 2 2 5 5 4 5 6 3 4 8 13 13 12 10 8 9 11 13 16 19 20 19 17 17 18 19 21 23 23 23 24 26 28 25 20 18 16 16 17 17 18 19 20 23 26 29 31 33 34 34 35 35 35 35 34 33 32 31 31 31 29 28 27 26 26 27 27
5 3 7 8 5 7 6 4 3 6 9 8 8 11 11 8 5 4 7 5 2 3 3 2 6 6 2 4 7 10 11 13 12 10 9 10 11 13 15 17 17 17 19 20 19 21 23 22 22 23 25 26 23 19 16 15 14 15 16 17 18 19 21 24 26 28 30 31 32 33 33 33 33 32 31 31 30 30 29 28 28 27 27 28 27 26
2 4 7 6 5 4 1 1 2 2 3 3 4 7 9 8 8 8 8 5 4 2 1 1 5 5 2 4 6 7 6 6 7 7 8 10 12 12 14 14 13 16 18 18 18 18 20 20 20 22 24 24 21 18 16 14 14 15 15 16 17 17 18 21 23 25 27 27 28 28 28 29 29 29 29 29 29 29 28 28 28 28 28 28 27 26
3 5 6 5 2 2 3 2 2 2 1 4 7 7 9 12 10 4 1 3 6 5 3 3 6 5 2 2 3 3 2 4 5 6 7 11 14 13 14 15 15 17 19 19 19 17 18 18 18 21 23 22 20 18 16 15 14 15 15 15 15 15 16 17 19 22 24 25 26 25 25 25 25 25 26 26 27 27 28 28 28 27 27 26 26 25
8 6 7 7 5 2 0 1 2 3 6 9 9 6 8 12 7 3 1 2 4 7 8 6 9 7 0 0 2 1 3 4 6 9 12 12 14 13 12 15 17 18 19 18 17 17 17 17 18 20 22 21 20 18 16 15 15 15 15 15 15 15 15 16 17 18 20 22 23 24 23 23 23 24 24 25 25 25 26 26 26 26 26 25 25 24
10 7 10 11 10 11 10 9 9 8 6 4 4 6 9 13 11 6 4 4 5 8 9 8 10 8 1 2 4 2 2 5 6 8 11 11 10 9 7 10 13 14 16 16 16 17 18 18 19 20 21 20 19 17 16 15 15 15 16 16 16 16 16 16 15 15 16 17 18 19 20 21 21 22 22 23 23 23 24 24 24 25 25 24 24 24
4 5 12 10 11 13 11 7 7 9 9 9 12 13 12 15 15 9 5 7 7 5 6 11 15 13 6 6 7 5 4 6 5 4 7 8 6 5 6 8 9 11 13 15 15 17 19 20 20 20 20 20 19 18 17 16 16 16 16 16 16 16 15 15 14 13 13 13 14 15 17 18 18 19 20 20 21 21 22 22 24 24 22 22 22 22
3 8 15 14 17 13 4 5 9 13 14 15 16 15 13 14 16 12 10 12 8 4 6 16 21 20 13 8 8 7 6 7 5 4 6 6 5 6 8 10 10 10 12 13 14 15 18 19 18 18 19 19 19 19 18 18 18 18 18 17 16 15 14 14 13 13 13 13 14 15 15 16 16 17 18 18 19 20 21 22 23 21 21 21 21 21
3 11 16 15 19 11 3 7 12 14 14 16 17 17 17 17 17 16 16 14 10 7 12 22 23 20 15 10 12 9 6 6 6 4 5 10 14 17 18 16 16 16 16 16 16 15 16 17 16 16 17 18 19 20 20 19 18 18 18 17 16 15 15 15 14 14 15 15 15 16 16 16 17 17 18 18 19 20 20 20 20 20 21 22 22 22
4 10 12 13 15 9 4 8 13 15 15 17 19 20 19 18 19 19 17 16 17 16 19 25 22 17 16 15 15 14 12 10 9 10 13 19 25 26 23 22 23 24 26 24 20 17 16 15 16 16 16 18 19 19 19 18 17 17 17 17 16 17 16 16 17 16 17 17 16 16 17 17 18 18 19 19 19 19 19 19 20 20 20 22 23 23
6 9 10 11 11 8 5 7 11 16 17 18 19 18 17 15 16 18 19 21 21 18 20 24 20 17 17 13 11 13 17 14 13 19 24 27 29 29 26 28 31 33 34 31 24 19 16 15 16 16 16 17 17 16 16 16 16 16 17 17 17 17 17 17 18 18 18 17 17 17 18 18 18 18 18 18 18 18 19 20 21 20 20 21 22 23
8 7 7 7 8 9 8 7 7 10 13 15 16 17 18 18 18 19 20 20 16 15 20 21 19 17 11 4 7 9 13 13 13 21 30 32 33 34 35 38 40 37 35 32 26 20 17 16 15 15 15 15 14 15 16 17 17 17 17 17 17 17 18 18 19 18 18 18 18 18 18 18 18 18 18 18 18 19 20 21 21 21 21 22 21 22
10 8 6 9 11 10 8 7 6 7 7 9 14 20 25 24 21 17 16 18 18 17 18 17 17 15 4 8 7 8 10 11 13 21 29 33 35 36 37 39 38 33 30 30 26 21 18 17 15 13 13 13 13 14 14 16 18 18 18 18 19 19 20 20 19 18 18 18 19 19 19 19 18 18 18 17 18 20 20 21 21 21 22 23 23 22
12 10 7 8 9 7 6 8 6 8 11 12 16 23 25 22 21 17 16 21 21 17 16 14 16 14 4 6 11 10 11 17 24 29 34 35 35 35 35 36 32 28 29 30 25 22 19 16 14 13 12 12 12 14 15 16 19 20 20 21 21 22 22 21 20 20 20 20 20 20 20 20 19 18 18 18 19 21 21 20 21 22 22 24 26 26
12 10 5 5 4 2 6 8 7 12 14 9 6 13 16 16 21 21 19 22 21 20 21 20 20 18 9 9 14 15 18 26 31 34 36 35 33 32 32 33 32 31 34 32 25 23 21 19 17 14 13 12 12 14 17 20 21 22 23 24 24 24 23 23 23 22 22 22 22 22 22 21 21 20 20 20 21 23 23 22 21 22 22 23 25 26
14 11 6 3 3 2 5 9 9 9 7 2 2 8 13 14 17 18 18 22 23 22 20 20 23 22 14 12 15 15 18 23 26 34 40 36 33 35 36 36 36 35 35 32 27 27 27 25 20 15 14 13 13 16 19 22 24 25 25 26 26 26 25 25 25 24 25 25 24 24 24 23 22 22 21 22 22 23 25 25 24 24 25 26 26 27
15 14 8 5 4 4 8 11 7 2 1 3 6 10 15 15 17 18 17 19 18 18 17 19 24 24 19 17 15 13 12 12 13 28 41 38 33 36 38 38 37 35 34 32 30 30 31 28 20 15 15 15 16 17 19 23 27 28 27 28 28 28 27 27 27 27 26 26 26 26 25 24 24 24 24 24 24 23 25 26 26 26 28 29 30 31
9 12 12 9 5 4 7 9 7 4 8 14 18 18 15 12 13 14 12 14 13 18 22 23 25 23 18 16 12 11 8 6 8 19 29 33 34 35 37 40 40 38 38 37 34 33 34 32 25 20 18 17 19 20 20 24 27 28 29 29 29 29 29 28 28 28 28 28 27 26 26 25 26 26 26 25 25 25 25 25 27 27 28 30 30 30
4 5 8 7 4 5 9 10 9 10 14 15 14 12 11 14 15 10 4 12 19 23 28 26 22 18 16 14 14 13 9 8 12 12 18 27 35 38 40 44 45 43 43 42 39 37 36 35 31 25 21 20 21 22 23 24 25 27 28 28 29 30 30 29 28 29 29 29 28 27 27 26 27 27 26 26 25 25 26 27 28 29 30 30 30 31
6 4 5 4 4 6 10 9 6 7 13 9 8 12 20 29 24 12 5 16 21 21 27 26 21 19 21 18 15 11 9 13 18 17 17 26 35 40 43 48 48 48 48 46 45 43 40 39 37 31 26 24 23 24 25 25 24 24 24 24 26 28 27 27 28 29 30 30 29 29 28 27 27 27 26 26 26 26 27 28 29 30 31 32 32 33
8 7 7 8 8 8 10 9 5 7 9 5 9 18 29 30 18 10 15 14 7 13 27 31 27 27 29 23 20 17 24 36 46 41 27 27 34 38 42 48 48 48 47 46 45 45 44 44 42 37 30 25 24 26 27 25 24 22 20 21 23 23 22 25 27 28 29 30 29 29 28 27 27 27 27 27 27 28 29 30 31 32 32 33 33 33
9 6 7 8 9 8 8 6 4 7 7 9 17 27 33 22 12 14 10 3 10 18 29 34 34 36 37 34 35 39 47 56 60 46 25 23 31 36 40 45 44 43 44 43 41 41 40 41 41 37 31 27 27 27 26 24 23 20 19 20 19 18 19 22 24 26 27 28 28 27 28 27 27 28 29 30 30 31 31 31 32 32 31 31 31 30
11 9 8 9 9 8 6 5 6 10 10 22 23 20 22 15 8 5 6 5 8 20 29 33 35 38 38 35 39 46 50 52 49 37 24 23 28 31 35 37 34 33 34 34 34 34 34 35 36 34 30 28 27 26 24 23 22 19 18 17 15 16 18 19 20 22 24 25 26 26 27 27 27 28 29 30 31 32 32 32 31 31 30 30 29 29
11 10 8 8 8 7 5 10 11 9 12 33 27 14 16 13 6 11 12 7 10 19 27 31 34 34 33 32 34 40 45 45 43 37 32 30 30 30 29 27 24 23 23 22 24 26 27 29 30 28 27 27 26 24 22 21 20 18 17 16 15 17 18 17 18 20 22 24 25 26 26 27 27 28 28 29 30 30 30 30 30 29 30 31 31 31
13 14 9 8 12 12 9 12 9 2 15 38 34 24 26 21 9 14 20 15 15 20 24 27 28 26 25 26 29 32 35 38 40 40 38 36 35 33 28 22 19 18 18 18 19 20 21 22 23 23 25 25 23 21 20 20 19 18 17 17 18 19 18 18 20 20 22 24 25 26 27 27 27 28 28 28 29 29 30 30 30 31 32 33 33 33
11 13 7 5 10 12 9 7 5 3 13 32 31 23 31 32 18 12 15 16 17 20 22 22 22 20 20 22 25 28 28 29 34 38 37 36 35 33 31 28 23 19 18 17 17 16 16 17 19 20 22 21 21 20 19 18 18 17 17 18 19 19 20 21 21 21 22 23 24 25 26 27 27 28 27 27 28 29 30 31 31 32 33 33 33 34
6 11 9 4 7 11 12 11 10 9 15 26 24 16 24 35 31 20 16 16 17 19 21 21 17 16 18 20 22 24 25 25 28 31 33 34 33 31 31 30 28 25 22 19 18 17 16 17 18 19 19 19 19 18 17 17 16 15 16 17 18 19 20 21 22 22 22 22 23 24 25 25 26 27 27 28 29 29 31 32 32 32 32 33 34 36
10 15 13 7 8 13 14 11 11 14 18 27 28 22 22 31 35 29 22 19 17 17 19 19 15 15 18 19 21 23 24 23 24 24 25 27 29 30 29 27 26 25 23 22 21 19 18 18 18 18 17 17 17 17 16 16 15 15 15 16 17 18 20 21 21 21 20 20 21 21 22 24 25 26 26 27 28 29 31 31 31 31 32 33 34 36
9 13 11 8 10 13 12 5 10 10 14 24 30 29 27 30 34 33 28 24 21 19 19 19 17 17 18 19 21 22 21 19 17 17 18 19 21 24 26 25 23 23 23 23 22 20 19 18 17 17 17 17 17 17 16 16 16 15 16 16 16 17 18 19 19 19 18 19 19 19 20 22 23 23 24 25 26 27 28 29 29 30 30 30 31 33
9 10 8 7 9 12 14 13 15 11 10 16 27 32 30 29 32 34 35 32 27 22 21 20 20 20 21 21 20 20 19 17 16 15 15 15 15 17 19 22 23 23 23 23 22 21 21 19 18 18 18 18 17 17 16 16 16 16 16 16 16 15 15 14 14 14 15 16 16 17 18 18 19 20 21 23 24 25 26 27 28 29 29 30 31 33
11 14 13 12 14 19 24 25 25 18 9 12 28 36 33 31 33 36 40 40 34 26 24 25 24 24 24 21 19 20 19 17 16 16 15 14 15 15 15 18 20 21 21 22 22 22 22 21 20 19 18 18 17 16 16 16 16 16 16 16 15 14 13 12 12 12 12 12 12 13 14 15 16 17 19 21 22 24 25 27 28 29 30 31 32 34
Wind_Direction
173 173 194 201 190 186 187 194 201 187 188 194 194 206 217 221 225 225 181 119 132 250 249 244 249 255 255 252 250 251 240 228 242 248 247 249 250 251 251 250 249 251 255 256 250 244 242 242 241 241 240 239 237 236 236 234 231 230 229 229 228 225 225 228 230 229 230 230 230 230 231 232 231 232 233 234 236 236 237 238 239 241 241 243 245 245
183 200 204 197 188 185 187 194 196 186 189 196 193 206 216 224 236 231 181 138 131 238 258 252 260 263 260 258 253 253 248 238 241 245 247 248 249 250 252 253 255 258 260 261 257 249 244 242 241 241 241 241 240 238 238 237 235 234 233 231 229 228 228 229 230 231 231 230 231 231 232 233 233 234 235 236 237 238 240 240 241 243 244 245 247 247
196 220 200 182 179 180 188 196 197 191 188 195 193 206 219 209 232 247 221 193 160 226 266 272 271 268 265 263 253 248 251 251 245 244 250 252 250 250 253 256 258 261 263 262 260 255 249 246 244 243 242 242 242 242 241 240 240 238 237 235 231 229 230 230 231 232 233 232 232 234 235 237 237 238 240 241 241 241 242 243 244 246 246 247 249 249
200 215 182 169 173 180 190 195 196 198 196 200 192 200 215 182 202 235 203 164 170 227 283 291 284 273 269 265 254 244 241 247 250 249 253 254 253 253 256 260 261 262 264 263 261 257 255 253 250 247 244 243 243 242 241 240 240 239 238 237 233 231 231 232 232 232 234 235 236 237 239 240 241 242 244 246 247 245 243 243 244 245 245 247 248 248
198 175 165 169 181 187 190 189 192 198 199 206 205 205 208 190 207 227 71 109 209 210 255 289 286 273 258 252 254 246 226 228 244 248 252 254 254 256 257 258 260 260 261 262 262 259 258 257 255 253 250 248 245 243 241 239 238 238 238 237 235 234 234 235 235 235 235 236 237 238 239 241 242 242 243 245 246 244 242 242 242 242 242 244 246 246
196 155 161 174 187 190 189 189 193 194 194 208 212 217 217 206 208 208 71 340 264 240 164 274 278 269 240 244 256 261 230 219 230 231 241 251 254 254 253 255 257 257 257 259 260 259 259 259 257 255 252 251 249 245 242 240 239 239 238 238 237 236 236 237 238 237 235 236 237 237 238 238 238 239 240 240 241 241 241 242 242 242 241 242 244 244
176 159 166 180 187 190 195 197 194 190 197 212 198 202 213 207 196 184 173 209 258 270 118 168 261 272 279 263 260 268 268 252 236 228 232 240 247 248 249 252 254 255 254 255 255 255 257 257 257 256 253 251 251 248 244 241 239 238 238 237 237 236 236 237 237 237 236 236 237 238 239 240 240 241 241 241 242 243 243 244 245 245 243 242 243 243
154 165 175 185 186 188 199 200 189 187 200 215 161 169 190 194 189 188 193 215 257 320 266 184 240 281 276 262 249 246 259 260 249 244 237 231 237 244 248 251 253 252 252 251 251 251 253 255 256 258 257 255 253 252 249 244 240 239 238 238 237 237 237 237 237 237 237 237 237 239 240 242 243 243 245 246 246 246 247 247 248 248 246 244 243 243
148 170 179 182 182 192 204 194 173 183 202 220 132 147 167 173 169 172 188 217 354 339 262 200 153 270 271 232 208 226 243 253 246 242 241 234 232 239 244 248 250 251 250 250 251 252 253 255 256 257 259 259 256 253 251 248 244 241 240 240 239 239 239 239 239 238 239 238 238 240 241 242 244 245 246 247 248 248 248 248 249 250 248 245 243 242
151 179 181 177 185 201 200 176 169 186 203 111 126 114 106 103 100 116 207 225 331 276 259 213 158 251 278 227 186 210 232 245 247 242 239 237 234 239 243 245 248 249 248 248 250 253 255 255 256 257 257 258 256 253 249 247 245 243 241 241 241 240 240 240 240 239 239 240 239 239 240 242 244 245 246 246 247 247 247 247 247 248 249 246 243 241
112 169 180 187 203 189 141 107 165 184 151 123 132 112 95 73 68 72 357 43 269 262 252 193 166 217 283 247 185 202 212 226 243 247 239 236 235 240 244 245 246 247 246 246 246 249 254 255 255 255 255 255 255 252 248 245 243 242 241 240 240 240 240 241 240 240 239 240 240 239 240 241 242 244 245 246 246 247 247 247 246 247 249 248 245 243
134 157 179 200 193 142 113 99 84 135 143 142 143 132 120 98 94 134 125 133 239 248 214 160 169 196 245 242 170 210 225 216 234 245 242 237 234 238 243 245 245 244 243 242 240 241 246 251 253 252 253 254 253 251 248 245 242 240 240 239 239 238 238 240 240 241 241 240 241 240 239 240 241 243 245 246 247 247 247 247 248 248 249 249 247 244
153 164 155 105 165 156 140 136 96 117 167 165 148 149 145 138 155 199 193 187 239 232 103 75 160 204 241 253 182 216 246 239 226 234 246 245 238 239 244 246 244 242 241 240 239 240 242 247 250 250 250 250 250 250 248 247 243 240 238 238 238 237 237 238 239 241 242 241 240 240 239 239 239 241 243 245 247 247 248 248 248 248 249 251 249 247
137 345 261 144 172 182 169 157 159 174 187 175 159 165 163 143 167 201 194 213 247 217 136 125 121 244 261 267 212 217 241 250 238 237 248 251 249 247 249 251 248 244 244 244 246 247 244 246 249 250 251 251 251 250 249 249 247 243 239 237 238 238 237 238 238 240 243 241 239 239 239 239 239 240 241 244 246 246 247 247 247 248 249 251 251 251
158 211 199 182 174 183 184 179 159 138 159 179 167 173 180 166 185 202 189 207 222 132 137 149 167 236 246 336 261 243 264 280 275 263 258 258 255 254 256 257 257 254 250 247 246 243 239 242 246 250 253 254 254 253 251 251 250 247 242 238 238 239 239 239 238 239 240 240 238 237 238 238 238 239 240 242 244 245 245 246 245 246 247 249 251 252
181 207 186 178 165 174 181 179 151 133 153 190 155 178 205 186 153 138 202 228 117 74 182 183 230 247 251 323 294 271 274 269 263 262 259 256 252 252 258 260 261 261 255 246 241 237 236 241 245 249 252 255 257 256 253 251 249 247 244 241 240 240 241 240 238 237 237 237 237 236 237 237 237 238 239 240 242 243 244 245 244 245 246 248 249 249
192 197 133 137 142 183 180 169 163 158 156 169 178 190 196 90 87 122 184 54 67 253 219 190 245 270 293 287 262 245 250 247 241 242 241 249 251 250 255 257 259 262 259 252 248 247 250 253 251 248 248 249 254 256 254 251 248 246 244 243 243 243 242 239 235 234 234 236 236 236 236 236 237 237 238 240 242 243 244 244 243 243 243 243 244 243
183 147 39 156 163 192 173 155 170 182 141 149 185 172 119 52 28 208 212 144 185 239 238 193 238 258 260 267 231 212 236 242 240 239 231 241 247 246 254 257 258 261 263 263 262 262 264 260 252 244 239 240 248 255 255 250 246 245 245 245 245 245 242 236 232 230 231 234 235 235 236 236 237 238 239 240 241 243 243 242 241 239 239 238 237 236
164 128 29 179 159 161 145 151 174 234 254 180 170 153 139 174 200 196 203 187 190 227 254 211 236 250 228 234 207 166 207 235 240 243 245 246 239 243 254 258 259 261 262 264 263 262 261 257 251 244 236 235 242 251 254 251 247 245 244 245 245 243 238 231 228 227 229 232 234 235 236 237 238 239 239 240 241 242 241 240 238 236 236 234 232 232
163 148 127 162 106 120 155 181 183 196 237 336 157 163 177 237 202 189 184 187 188 210 244 231 225 241 215 210 208 194 204 224 221 227 243 248 244 246 252 255 259 263 263 263 260 256 252 250 251 246 235 232 236 243 248 246 244 243 242 242 241 239 234 228 225 225 226 230 232 233 235 236 237 238 238 239 239 239 240 238 235 234 234 231 229 230
155 181 149 138 104 159 186 204 195 185 170 163 178 181 189 190 181 210 192 203 213 208 228 235 240 247 200 160 198 209 221 231 227 230 236 243 251 256 259 262 268 269 267 272 269 257 248 243 247 245 233 228 230 234 239 238 239 239 238 238 236 232 231 228 227 228 229 231 233 234 235 236 237 237 237 237 236 237 237 235 233 232 230 229 228 228
168 182 149 141 172 188 188 204 217 195 177 180 192 189 189 179 156 188 199 196 214 218 211 231 267 268 167 157 201 209 221 228 232 244 249 251 261 267 270 271 273 270 267 273 273 260 247 240 243 242 229 222 224 226 230 231 232 235 234 233 233 231 230 229 230 231 232 233 234 235 235 235 236 236 235 235 234 234 233 231 231 228 227 228 227 227
100 117 125 130 174 177 97 26 352 274 210 221 241 201 189 187 183 201 210 183 170 205 58 68 281 284 134 158 199 199 214 236 240 245 255 264 267 271 274 269 265 265 266 270 273 264 251 242 240 234 222 216 218 220 221 223 224 228 231 231 231 232 232 232 232 233 233 234 234 235 235 235 235 235 234 234 233 232 230 228 227 226 227 227 226 227
95 119 119 99 102 50 21 11 359 347 191 216 238 217 195 198 195 200 241 157 164 188 190 201 252 266 119 149 210 210 266 289 269 247 246 263 268 271 275 270 264 266 269 272 273 266 255 246 234 222 213 209 212 215 216 218 221 225 228 229 229 229 229 230 231 232 233 233 233 233 232 232 232 231 231 230 229 228 227 225 225 225 226 227 226 225
175 151 136 129 133 127 72 222 214 218 206 211 213 195 195 199 176 97 55 160 185 197 193 213 250 255 243 106 257 291 291 268 255 248 248 259 273 282 284 277 270 268 270 272 267 258 249 239 223 212 209 210 211 213 215 217 221 224 224 224 224 223 223 224 225 226 228 228 229 228 227 226 225 224 224 224 224 223 223 223 223 223 225 227 225 221
175 162 164 167 168 176 190 199 194 187 188 209 183 155 184 191 175 166 186 191 207 197 186 208 240 243 134 133 228 230 250 251 238 236 244 251 266 286 298 288 278 272 272 269 258 247 238 229 219 212 212 214 214 215 218 220 221 221 220 219 218 219 220 221 221 221 221 221 222 222 221 220 220 219 220 220 219 219 221 221 221 223 226 224 220 219
153 182 188 194 192 189 194 192 164 150 154 185 195 182 182 189 186 185 191 207 212 183 184 217 233 240 211 165 203 210 197 239 237 205 231 249 262 285 303 302 291 281 277 271 257 241 229 225 222 219 218 219 218 219 221 221 220 217 216 216 216 216 216 216 215 214 212 211 210 210 211 211 212 214 214 216 216 217 218 218 219 222 222 217 217 217
123 193 194 205 211 203 175 136 147 156 173 193 197 186 180 186 188 191 206 214 197 138 221 229 228 239 236 179 186 211 200 228 242 184 208 255 289 299 303 311 311 302 291 276 260 242 229 227 227 226 224 222 221 223 222 220 217 213 212 213 212 212 211 209 207 204 203 202 200 199 199 200 202 205 207 211 213 214 216 216 216 215 211 210 213 213
144 200 197 201 211 205 127 143 155 160 181 191 190 188 186 183 185 198 213 213 188 175 234 236 227 235 242 206 196 213 200 212 240 231 252 287 293 288 289 291 293 300 299 281 263 248 237 233 230 226 224 221 221 223 222 219 215 212 212 211 208 206 206 205 203 200 200 200 198 197 196 195 197 199 202 206 208 211 213 211 210 209 206 206 207 208
172 205 197 193 207 205 164 171 165 163 181 190 190 191 186 182 188 198 210 215 209 210 233 242 240 243 246 228 210 213 217 230 266 282 282 284 282 279 277 272 276 291 296 285 267 253 244 236 231 225 221 220 220 221 221 219 216 215 214 210 206 204 203 203 203 201 201 201 200 199 198 197 198 199 202 204 206 209 207 203 205 208 204 202 202 202
208 202 183 181 204 205 190 196 182 175 181 188 192 189 178 180 194 203 212 216 214 219 235 245 251 255 250 235 203 201 214 232 263 267 265 271 274 274 272 273 279 287 289 281 266 250 244 237 230 227 223 223 223 222 223 221 218 216 215 212 210 208 206 207 206 205 205 204 203 203 203 203 203 203 204 205 204 204 202 200 205 207 200 197 197 196
207 196 156 159 200 210 200 201 188 174 178 188 193 186 179 186 197 204 213 215 206 213 231 239 244 248 243 180 142 172 196 213 233 241 246 254 259 262 265 269 273 275 276 274 263 246 239 235 230 229 230 230 229 226 225 222 219 217 217 216 216 215 214 214 214 212 210 209 209 210 209 208 207 206 206 205 203 203 202 202 205 202 196 197 198 196
192 189 161 167 197 210 193 173 158 149 167 196 198 191 191 195 200 203 215 219 209 206 218 227 231 234 196 116 159 186 185 199 211 218 227 235 239 246 252 256 260 263 268 272 262 239 230 230 228 229 233 233 233 232 229 225 223 221 221 222 221 221 221 220 220 219 217 216 218 217 215 214 211 210 209 206 204 205 204 202 202 200 196 198 201 199
186 190 182 178 197 202 154 138 152 178 196 214 207 197 195 193 192 197 213 218 213 212 223 235 239 239 215 158 199 199 190 208 217 221 227 230 231 238 246 250 255 260 265 268 254 229 222 225 225 228 230 229 232 233 230 228 228 226 225 227 227 227 226 224 223 223 222 221 222 221 220 218 215 213 211 208 206 207 207 204 200 201 199 198 202 206
180 189 182 175 194 183 134 144 183 210 217 228 204 187 192 196 196 202 219 224 216 215 225 237 245 243 229 205 210 206 210 219 223 229 233 232 232 238 245 251 256 260 263 260 241 219 217 220 223 228 226 225 233 233 228 226 228 228 228 229 229 229 228 227 225 224 224 224 223 223 222 220 218 216 212 210 207 205 207 208 205 204 206 207 210 216
176 181 178 169 158 133 155 177 201 220 222 283 45 159 180 202 204 205 226 232 219 213 219 231 242 242 229 218 213 207 219 229 232 238 237 232 233 241 247 254 258 259 259 252 233 224 226 224 222 226 227 229 235 236 232 229 228 229 230 230 230 230 229 228 228 226 225 225 225 225 223 220 219 217 214 214 211 204 204 207 207 207 209 213 216 219
182 178 173 179 179 172 185 194 212 263 186 222 229 190 181 196 198 196 221 236 222 210 214 226 238 239 230 228 219 203 216 233 243 245 239 230 230 240 247 253 255 253 252 248 240 237 235 226 220 224 230 231 234 237 239 235 231 229 230 231 232 232 230 230 230 229 228 226 226 226 225 222 220 218 216 216 215 212 209 208 210 211 212 215 217 219
191 183 174 178 190 180 182 195 208 220 222 222 216 201 190 193 189 188 220 250 235 208 204 218 233 234 230 228 205 173 182 223 253 247 233 222 225 236 244 249 249 246 245 245 244 242 236 228 224 230 234 233 237 240 238 235 233 230 229 230 233 235 234 233 233 231 230 229 227 227 227 225 223 220 218 217 216 217 216 213 215 218 220 223 226 227
155 176 174 172 174 169 185 199 198 208 232 231 204 182 160 142 134 129 181 254 250 223 207 216 229 227 226 217 179 157 174 229 252 234 200 206 223 232 239 244 244 243 243 242 243 243 240 235 234 237 237 234 238 240 234 231 232 231 230 231 232 234 236 236 237 235 232 230 228 228 228 229 228 226 223 221 220 219 220 219 220 222 224 227 230 232
148 162 170 167 175 182 196 207 202 223 241 228 161 150 145 135 124 115 197 242 250 225 203 210 222 224 227 212 175 165 193 220 243 238 196 203 223 231 238 243 243 243 244 242 242 242 241 240 240 243 243 240 240 238 231 227 227 228 230 232 233 235 237 237 238 236 234 232 230 228 228 229 231 232 230 227 225 224 224 224 224 225 227 228 230 233
176 183 183 184 191 192 199 209 222 248 244 201 140 148 142 132 133 183 218 229 224 172 183 200 214 223 224 205 178 194 217 225 239 244 224 207 219 230 241 245 242 242 244 244 244 243 242 243 245 248 248 244 239 233 226 221 221 223 226 231 234 238 239 238 238 236 234 233 231 229 228 227 229 233 232 231 229 228 228 228 228 229 230 230 231 233
176 178 182 188 189 191 204 213 236 259 232 160 151 152 146 146 187 211 202 129 106 147 176 194 207 216 218 208 199 211 225 231 238 243 230 212 222 233 242 244 242 243 246 247 249 247 245 245 247 248 246 238 230 226 221 219 221 223 228 234 237 239 239 238 238 236 235 234 231 230 229 227 226 228 229 229 229 228 229 230 230 230 229 228 230 230
175 172 181 192 185 182 199 192 215 252 202 151 149 159 164 178 206 162 110 83 139 166 178 190 205 213 215 212 210 218 230 237 240 242 238 230 232 236 241 244 245 246 248 249 250 249 246 244 243 243 241 234 226 224 222 223 227 229 234 239 239 236 236 236 236 235 234 233 231 230 230 228 227 227 227 227 227 226 226 227 226 225 224 224 227 227
181 176 179 189 176 163 188 197 212 253 167 150 154 184 195 187 144 135 155 175 175 178 184 193 207 215 215 215 216 220 230 239 242 243 241 238 237 237 238 241 242 241 240 239 240 241 240 238 236 235 232 227 224 224 225 228 232 235 239 240 234 231 232 232 233 233 231 231 231 230 230 229 228 227 228 228 228 226 225 225 224 223 223 225 227 226
188 188 182 184 184 184 203 204 201 225 160 166 176 193 191 185 162 156 171 176 174 185 193 196 204 213 218 221 223 224 231 239 242 242 241 240 239 238 236 235 232 228 226 226 228 231 231 230 228 225 223 222 223 225 228 232 237 241 242 238 232 231 231 229 231 232 231 231 231 230 231 231 230 229 228 229 230 229 227 226 226 226 227 228 227 224
192 190 179 178 194 202 221 210 165 122 178 184 191 196 191 193 195 171 170 181 189 199 203 200 204 213 217 221 225 228 234 240 242 242 241 240 240 240 238 236 232 224 221 222 224 223 219 216 214 214 217 220 222 225 228 232 237 238 236 233 231 230 229 229 230 232 233 233 232 232 233 233 232 231 229 230 232 232 231 232 232 231 231 230 227 224
202 193 191 186 178 194 221 219 188 178 188 190 196 202 195 198 202 196 188 195 205 214 211 203 205 215 214 217 225 230 234 236 238 241 242 240 240 240 239 237 233 228 225 222 219 213 207 205 205 206 209 213 216 221 224 226 228 228 226 226 227 226 227 228 229 232 233 234 234 234 234 235 234 234 231 230 230 231 232 233 234 234 234 232 229 226
192 191 193 190 177 194 219 216 174 169 186 193 198 202 197 199 203 202 201 205 208 211 207 198 201 215 219 223 229 231 231 232 234 239 241 240 239 239 236 234 230 224 217 212 210 208 205 204 203 202 204 207 210 214 216 217 217 216 216 218 220 221 223 224 227 229 231 232 233 235 236 236 236 235 235 234 233 234 235 236 236 236 236 235 234 232
158 176 180 180 193 212 232 202 129 151 199 204 203 202 200 201 203 202 205 209 205 200 199 199 208 223 230 229 227 224 222 223 226 229 231 233 235 235 232 228 223 217 212 209 209 210 211 210 207 204 204 204 205 206 207 207 208 208 208 211 213 215 218 220 223 225 226 228 230 230 232 235 236 237 238 238 238 240 241 242 243 243 243 242 241 239
147 172 176 178 193 217 231 206 171 176 213 207 200 201 199 199 203 205 207 209 207 205 210 215 220 227 227 221 217 213 209 208 210 213 216 221 228 230 226 220 216 213 212 212 212 212 212 210 207 204 202 201 201 201 201 201 202 203 204 206 209 212 214 216 219 222 223 225 227 228 231 235 238 239 240 242 243 244 244 244 245 245 245 244 242 240
183 181 180 188 200 215 224 211 193 198 221 191 189 196 197 196 201 206 209 211 210 212 221 227 227 224 219 214 213 211 206 204 206 206 206 212 221 224 219 213 210 210 210 209 206 204 203 201 201 201 200 200 199 197 196 196 196 197 198 200 202 204 207 210 214 218 222 225 228 231 234 238 239 240 242 244 245 246 246 246 245 245 243 242 240 238